Погода в Жуазейру

Бразилия     9°25′42″S   40°30′21″W
темп.,
°C
ветер,
м/с
пор.,
м/с
влажн.,
%
обл.,
%
осадки,
мм/ч
давл.,
гПа
погр.,
м
27 февраля, сб
сб2700:00+26юв7125345 0.0 1012564
03:00+23вюв6106768 0.0 1011491
06:00+22юв6974100 0.0 1012399
09:00+28вюв675682 0.0 10131037
12:00+31вюв454250 0.0 10111848
15:00+32в453775 0.0 10072100
18:00+30в454297 0.0 1007133
21:00+27вюв444994 0.1 101082
28 февраля, вс
вс2800:00+26вюв81157100 0.1 1011779
03:00+23юв6107297 0.3 1010621
06:00+22юв697871 0.0 1011597
09:00+26вюв786170 0.0 10131032
12:00+30в674258 0.0 10101496
15:00+34в562829 0.0 10072653
18:00+31вюв583245 0.0 1006172
21:00+28юв6113972 0.0 1009204
1 марта, пн
пн100:00+25в6115748 0.1 1010547
03:00+23вюв6107741 0.1 1009571
06:00+22юв598398 0.0 1010513
09:00+27вюв675097 0.0 1011999
12:00+33вюв673343 0.0 10092071
15:00+34юв983335 0.0 10052349
18:00+30ююв8104278 0.0 1006603
21:00+28юв9135052 0.0 1009746
2 марта, вт
вт200:00+24вюв8127665 0.6 1011742
03:00+23вюв7117946 0.6 1010692
06:00+22вюв611772 0.0 1011547
09:00+27вюв89527 0.0 10131096
12:00+32вюв893843 0.0 10112001
15:00+33вюв883852 0.0 10082055
18:00+30юв794561 0.0 1008614
21:00+28юв6104775 0.0 1011270
3 марта, ср
ср300:00+24юв7134153 0.0 1013547
03:00+21юв7116227 0.0 1013441
06:00+21юв6108053 0.0 1014444
09:00+27вюв785733 0.0 10161059
12:00+31вюв664774 0.1 10141591
15:00+31в674481 0.1 10101700
18:00+29юв8104934 0.0 1010456
21:00+24юв8127360 1.3 1013373